Amsterdam, Netherlands

8:52 AM CEST on October 23, 2019 (GMT +0200)
Schiphol

Weather History for EHAM - August, 2019

Change the Weather History Date:

Wednesday, August 28, 2019

  Actual Average Record
Temperature  
Mean Temperature 70 °F -  
Max Temperature 77 °F 64 °F 78 °F (2017)
Min Temperature 64 °F 51 °F 50 °F (1996)
Cooling Degree Days 6    
Growing Degree Days 20 (Base 50)    
Moisture  
Dew Point 64 °F    
Average Humidity 75    
Maximum Humidity 88    
Minimum Humidity 55    
Precipitation  
Precipitation 0.00 in - - ()
Sea Level Pressure  
Sea Level Pressure 29.92 in    
Wind  
Wind Speed 6 mph ()    
Max Wind Speed 20 mph    
Max Gust Speed -    
Visibility 5.5 miles    
Events Rain    
Averages and records for this station are not official NWS values.
T = Trace of Precipitation, MM = Missing Value Source: Averaged Metar Reports

Daily Weather History Graph

Daily Weather History Graph

Search for Another Location

Airport or City:

Astronomy

Aug. 28, 2019 Rise Set
Actual Time 6:44 AM CEST 8:38 PM CEST
Civil Twilight 6:08 AM CEST 9:14 PM CEST
Nautical Twilight 5:23 AM CEST 9:59 PM CEST
Astronomical Twilight 4:32 AM CEST 10:49 PM CEST
Moon 3:31 AM CEST (8/28) 7:59 PM CEST (8/28)
Length of Visible Light 15h 05m
Length of Day
13h 53m
Waning Crescent, 6% of the Moon is Illuminated
Aug 28
Waning Crescent
Aug 30
New
Sep 6
First Quarter
Sep 14
Full
Sep 22
Last Quarter

Hourly Weather History & Observations

Time (CEST) Temp. Dew Point Humidity Pressure Visibility Wind Dir Wind Speed Gust Speed Precip Events Conditions
12:00 AM 70 °F 64 °F 77% 29.91 in 9 mi ESE 2.2 mph - -   Partly Cloudy
12:25 AM 68.0 °F 64.4 °F 88% 29.89 in - SE 1.2 mph - N/A   Clear
12:55 AM 69.8 °F 64.4 °F 83% 29.89 in - SSE 3.5 mph - N/A   Clear
1:00 AM 71 °F 64 °F 73% 29.90 in 7 mi SE 4.5 mph - -   Partly Cloudy
1:25 AM 69.8 °F 62.6 °F 78% 29.89 in - SE 4.6 mph - N/A   Clear
1:55 AM 68.0 °F 64.4 °F 88% 29.89 in - South 1.2 mph - N/A   Clear
2:00 AM 69 °F 64 °F 78% 29.90 in 7 mi SSE 2.2 mph - -   Partly Cloudy
2:25 AM 69.8 °F 64.4 °F 83% 29.89 in - SSE 3.5 mph - N/A   Clear
2:55 AM 68.0 °F 62.6 °F 83% 29.89 in 5.6 mi SSE 3.5 mph - N/A   Unknown
3:00 AM 67 °F 63 °F 83% 29.89 in 6 mi SE 4.5 mph - -   Mist
3:25 AM 68.0 °F 64.4 °F 88% 29.89 in 5.6 mi SE 2.3 mph - N/A   Unknown
3:55 AM 68.0 °F 62.6 °F 83% 29.86 in 5.6 mi SSE 3.5 mph - N/A   Unknown
4:25 AM 66.2 °F 62.6 °F 88% 29.86 in 5.6 mi SSE 3.5 mph - N/A   Unknown
4:55 AM 68.0 °F 62.6 °F 83% 29.86 in 5.6 mi SE 3.5 mph - N/A   Unknown
5:25 AM 66.2 °F 62.6 °F 88% 29.86 in 5.6 mi Variable 2.3 mph - N/A   Unknown
5:55 AM 66.2 °F 60.8 °F 83% 29.86 in 5.6 mi SE 4.6 mph - N/A   Unknown
6:25 AM 66.2 °F 60.8 °F 83% 29.89 in 5.6 mi South 3.5 mph - N/A   Unknown
6:55 AM 66.2 °F 60.8 °F 83% 29.89 in 5.6 mi SSE 3.5 mph - N/A   Unknown
7:00 AM 66 °F 62 °F 81% 29.89 in 5 mi SSE 2.2 mph - -   Mist
7:25 AM 66.2 °F 60.8 °F 83% 29.89 in 5.6 mi Variable 2.3 mph - N/A   Unknown
7:55 AM 68.0 °F 64.4 °F 88% 29.89 in 5.0 mi SSW 4.6 mph - N/A   Unknown
8:00 AM 69 °F 64 °F 79% 29.89 in 5 mi SSW 4.5 mph - -   Mist
8:25 AM 71.6 °F 66.2 °F 83% 29.89 in 3.7 mi SSW 3.5 mph - N/A   Unknown
8:55 AM 73.4 °F 68.0 °F 83% 29.89 in 2.5 mi SW 4.6 mph - N/A   Mist
9:00 AM 74 °F 67 °F 74% 29.90 in 2 mi WSW 4.5 mph - -   Mist
9:25 AM 75.2 °F 68.0 °F 78% 29.89 in 1.9 mi WSW 6.9 mph - N/A   Mist
9:55 AM 75.2 °F 68.0 °F 78% 29.92 in 1.9 mi SW 17.3 mph - N/A   Mist
10:00 AM 75 °F 67 °F 71% 29.92 in 2 mi SW 15.7 mph - -   Mist
10:25 AM 73.4 °F 66.2 °F 78% 29.92 in 2.2 mi WSW 19.6 mph - N/A   Partly Cloudy
10:55 AM 77.0 °F 64.4 °F 65% 29.92 in 3.7 mi WSW 6.9 mph - N/A   Partly Cloudy
11:00 AM 76 °F 63 °F 55% 29.93 in 4 mi WSW 13.4 mph - -   Light Haze
11:55 AM 75.2 °F 62.6 °F 65% 29.89 in 6.2 mi NW 6.9 mph - N/A Rain Light Rain Showers
12:25 PM 75.2 °F 62.6 °F 65% 29.89 in 5.6 mi West 9.2 mph - N/A   Unknown
12:55 PM 75.2 °F 64.4 °F 69% 29.92 in 5.0 mi WSW 10.4 mph - N/A   Unknown
1:00 PM 75 °F 65 °F 64% 29.93 in 6 mi WSW 8.9 mph - -   Light Haze
1:25 PM 75.2 °F 66.2 °F 73% 29.92 in 5.0 mi WSW 12.7 mph - N/A   Unknown
1:55 PM 75.2 °F 66.2 °F 73% 29.92 in 5.6 mi WSW 10.4 mph - N/A   Partly Cloudy
2:00 PM 75 °F 65 °F 64% 29.94 in 6 mi WSW 13.4 mph - -   Light Haze
2:25 PM 75.2 °F 66.2 °F 73% 29.92 in 5.6 mi SW 10.4 mph - N/A   Unknown
2:55 PM 75.2 °F 64.4 °F 69% 29.92 in 5.6 mi WSW 11.5 mph - N/A   Unknown
3:00 PM 76 °F 65 °F 60% 29.94 in 5 mi WSW 8.9 mph - -   Light Haze
3:25 PM 75.2 °F 66.2 °F 73% 29.92 in 5.6 mi WSW 9.2 mph - N/A   Unknown
3:55 PM 75.2 °F 66.2 °F 73% 29.92 in 5.6 mi West 10.4 mph - N/A   Unknown
4:00 PM 76 °F 65 °F 61% 29.94 in 6 mi WSW 8.9 mph - -   Light Haze
4:25 PM 77.0 °F 64.4 °F 65% 29.92 in - West 9.2 mph - N/A   Clear
4:55 PM 75.2 °F 64.4 °F 69% 29.92 in - West 10.4 mph - N/A   Clear
5:00 PM 75 °F 64 °F 62% 29.95 in 7 mi West 11.2 mph - -   Partly Cloudy
5:25 PM 73.4 °F 64.4 °F 73% 29.95 in - West 11.5 mph - N/A   Clear
5:55 PM 73.4 °F 64.4 °F 73% 29.95 in - West 9.2 mph - N/A   Clear
6:00 PM 74 °F 64 °F 63% 29.95 in 7 mi West 8.9 mph - -   Partly Cloudy
6:25 PM 73.4 °F 64.4 °F 73% 29.95 in - West 9.2 mph - N/A   Clear
6:55 PM 73.4 °F 62.6 °F 69% 29.92 in - West 9.2 mph - N/A   Clear
7:00 PM 72 °F 63 °F 65% 29.94 in 9 mi West 11.2 mph - -   Partly Cloudy
7:25 PM 71.6 °F 62.6 °F 73% 29.92 in - WNW 8.1 mph - N/A   Clear
7:55 PM 69.8 °F 62.6 °F 78% 29.95 in - West 9.2 mph - N/A   Clear
8:00 PM 71 °F 63 °F 68% 29.95 in 7 mi West 8.9 mph - -   Partly Cloudy
8:25 PM 69.8 °F 62.6 °F 78% 29.95 in - West 6.9 mph - N/A   Clear
8:55 PM 69.8 °F 62.6 °F 78% 29.95 in - West 6.9 mph - N/A   Clear
9:00 PM 70 °F 62 °F 68% 29.96 in 9 mi West 6.7 mph - -   Partly Cloudy
9:25 PM 69.8 °F 62.6 °F 78% 29.95 in 6.2 mi West 9.2 mph - N/A Rain Light Rain
9:55 PM 69.8 °F 62.6 °F 78% 29.95 in 6.2 mi WSW 11.5 mph - N/A Rain Light Rain
10:00 PM 69 °F 63 °F 74% 29.97 in 7 mi West 11.2 mph - - Rain Light Rain
10:25 PM 68.0 °F 62.6 °F 83% 29.95 in 6.2 mi WSW 9.2 mph - N/A Rain Light Rain
10:55 PM 68.0 °F 60.8 °F 78% 29.95 in 6.2 mi WSW 6.9 mph - N/A   Partly Cloudy
11:25 PM 68.0 °F 62.6 °F 83% 29.95 in 6.2 mi SW 8.1 mph - N/A   Partly Cloudy
11:55 PM 68.0 °F 60.8 °F 78% 29.98 in 6.2 mi SW 9.2 mph - N/A   Partly Cloudy